Retour au catalogue

SL-8 R/B

ActifLEO
NORAD 8295·ROCKET BODY·🇷🇺 Russia

Lancé Sep 17, 1975 depuis Plesetsk Cosmodrome

Loading…

Prochains Passages (prochaines 24 heures)

TLE

FraisSource: Space-Track

Époque: Sep 14, 2026, 06:16 UTC

1 08295U 75086J   26257.26142948 -.00000029  00000-0 -13033-3 0  9994
2 08295  74.0155 353.5751 0126999  20.7424   7.7125 12.22057260275218

Suivez SL-8 R/B en temps réel avec AllMySat

Download on the App Store